Regional Weather Roundup
Issued by NWS

Home | Current Version | Previous Version | Graphics & Text | Print | Product List | Glossary On
Versions: 1 2 3 4 5 6 7 8 9 10 11 12 13 14 15 16 17 18 19 20 21 22 23 24 25 26 27 28 29 30 31 32 33 34 35 36 37 38 39 40 41 42 43 44 45 46 47 48 49 50
000
ASUS45 KPSR 211210
RWRAZ

ARIZONA HOURLY REGIONAL WEATHER ROUNDUP
NATIONAL WEATHER SERVICE PHOENIX AZ
500 AM MST SAT JAN 21 2017

NOTE: FAIR INDICATES FEW OR NO CLOUDS BELOW 12,000 FEET WITH NO
SIGNIFICANT WEATHER AND/OR OBSTRUCTIONS TO VISIBILITY.

AZZ001>003-036-211300-
NORTHWEST ARIZONA

CITY           SKY/WX    TMP DP  RH WIND       PRES   REMARKS
BULLHEAD CITY  PTCLDY    50  41  71 S5        29.50R
KINGMAN        CLOUDY    41  32  70 SW26G33   29.46R
6HR MIN TEMP:  40; 6HR MAX TEMP:  42; 6HR PCP:  0.05;

$$

AZZ004>008-015-016-018-211300-
NORTH CENTRAL ARIZONA

CITY           SKY/WX    TMP DP  RH WIND       PRES   REMARKS
GRAND CANYON   LGT SNOW  27  27 100 SW14G21   29.38R FOG     WCI  16
6HR MIN TEMP:  28; 6HR MAX TEMP:  30; 6HR PCP:  0.05;

WILLIAMS       CLOUDY    28  25  86 W18G30    29.40S WCI  16
PRESCOTT       MOCLDY    34  31  88 SW24G33   29.46R WCI  21
6HR MIN TEMP:  33; 6HR MAX TEMP:  37; 6HR PCP:  0.17;

FLAGSTAFF      SNOW      26  25  96 W13G24    29.39R VSB 1/4 WCI  15
6HR MIN TEMP:  26; 6HR MAX TEMP:  30; 6HR PCP:  0.21;

PAYSON         MIX PCPN  34  34 100 W14G24    29.51R WCI  24
PAGE           LGT RAIN  37  32  82 CALM      29.32R
6HR MIN TEMP:  37; 6HR MAX TEMP:  40; 6HR PCP:  0.07;

$$

AZZ009>014-017-211300-
NORTHEAST ARIZONA

CITY           SKY/WX    TMP DP  RH WIND       PRES   REMARKS
WINSLOW        PTCLDY    34  32  92 SW12      29.41R WCI  25
6HR MIN TEMP:  33; 6HR MAX TEMP:  38; 6HR PCP:  0.12;

SAINT JOHNS    FLURRIES  32  28  86 SW16G29   29.43F WCI  21
6HR MIN TEMP:  31; 6HR MAX TEMP:  40; 6HR PCP:  0.05;

SHOW LOW       LGT SNOW  28  25  86 SW18      29.47R WCI  16
$$

AZZ023-211300-
GREATER PHOENIX AREA

CITY           SKY/WX    TMP DP  RH WIND       PRES   REMARKS
PHOENIX        PTCLDY    51  40  65 W22G31    29.54R
6HR MIN TEMP:  51; 6HR MAX TEMP:  55; 6HR PCP:  0.14;

BUCKEYE        MOCLDY    46  46 100 SW3       29.57R
LUKE AFB       MOCLDY    48  45  87 SW6       29.56R
6HR MIN TEMP:  49; 6HR MAX TEMP:  53; 6HR PCP:  0.07;

DEER VALLEY    CLOUDY    49  44  83 SW6       29.55R
6HR MIN TEMP:  48; 6HR MAX TEMP:  51; 6HR PCP:  0.04;

SCOTTSDALE     PTCLDY    50  41  71 W14G23    29.56S
6HR MIN TEMP:  50; 6HR MAX TEMP:  53; 6HR PCP:  0.03;

MESA-GATEWAY   MOCLDY    50  43  76 SW10      29.59R
$$

AZZ027-028-211300-
SOUTHWEST MARICOPA COUNTY AND PINAL COUNTY

CITY           SKY/WX    TMP DP  RH WIND       PRES   REMARKS
CASA GRANDE    CLOUDY    52  41  66 SW7       29.60R
6HR MIN TEMP:  50; 6HR MAX TEMP:  53; 6HR PCP:  0.01;

$$

AZZ503-504-507>509-211300-
SOUTHEAST ARIZONA

CITY           SKY/WX    TMP DP  RH WIND       PRES   REMARKS
TUCSON         PTCLDY    50  37  61 W8G24     29.63S
6HR MIN TEMP:  46; 6HR MAX TEMP:  52; 6HR PCP:  0.24;

DAVIS-MONTHAN  PTCLDY    48  38  67 W13       29.63R
6HR MIN TEMP:  45; 6HR MAX TEMP:  49; 6HR PCP:  0.27;

NOGALES        LGT RAIN  44  39  82 SW10      29.66S
6HR MIN TEMP:  44; 6HR MAX TEMP:  47; 6HR PCP:  0.30;

SIERRA VISTA   LGT RAIN  41  36  81 W23G32    29.63R
6HR MIN TEMP:  41; 6HR MAX TEMP:  46; 6HR PCP:  0.37;

DOUGLAS        CLOUDY    43  38  82 SW14      29.62F
6HR MIN TEMP:  42; 6HR MAX TEMP:  45; 6HR PCP:  0.44;

SAFFORD        MOCLDY    40  37  89 S7        29.54S
6HR MIN TEMP:  37; 6HR MAX TEMP:  47; 6HR PCP:  0.44;

$$

AZZ020-021-025-026-031-211300-
SOUTHWEST ARIZONA

CITY           SKY/WX    TMP DP  RH WIND       PRES   REMARKS
YUMA           CLOUDY    52  41  66 W8        29.64R
6HR MIN TEMP:  50; 6HR MAX TEMP:  55;

$$

CAZ031-033-041-043-047-048-061-211300-
SOUTHERN CALIFORNIA

CITY           SKY/WX    TMP DP  RH WIND       PRES   REMARKS
DOWNTOWN L.A.  CLEAR     48  41  76 N3        29.70R
6HR MIN TEMP:  47; 6HR MAX TEMP:  53;

L.A. AIRPORT   PTCLDY    52  41  66 NW8       29.70R
6HR MIN TEMP:  51; 6HR MAX TEMP:  55;

SAN DIEGO      PTCLDY    54  44  69 W13G22    29.75R
6HR MIN TEMP:  54; 6HR MAX TEMP:  57;

BURBANK        CLEAR     44  39  82 NW5       29.70R
6HR MIN TEMP:  45; 6HR MAX TEMP:  51;

ONTARIO        PTCLDY    43  39  86 W8        29.67R
6HR MIN TEMP:  42; 6HR MAX TEMP:  49; 6HR PCP: TRACE;

RIVERSIDE      CLEAR     46  42  86 W12       29.67R
6HR MIN TEMP:  46; 6HR MAX TEMP:  50;

PALM SPRINGS   PTCLDY    54  35  48 NW6       29.61R
6HR MIN TEMP:  49; 6HR MAX TEMP:  54; 6HR PCP:  0.03;

EL CENTRO NAS  PTCLDY    50  40  68 SW7       29.64S
6HR MIN TEMP:  49; 6HR MAX TEMP:  56; 6HR PCP:  0.02;

IMPERIAL       PTCLDY    50  41  71 SW12      29.62S
6HR MIN TEMP:  50; 6HR MAX TEMP:  55; 6HR PCP: TRACE;

BLYTHE         CLEAR     50  44  80 SW18      29.55R
6HR MIN TEMP:  50; 6HR MAX TEMP:  53;

NEEDLES        PTCLDY    50  40  68 SW6       29.51R
6HR MIN TEMP:  50; 6HR MAX TEMP:  54;

$$

NVZ020-UTZ003-211300-
SOUTHERN NEVADA-UTAH

CITY           SKY/WX    TMP DP  RH WIND       PRES   REMARKS
LAS VEGAS      MOCLDY    45  30  55 SW8       29.41R
6HR MIN TEMP:  45; 6HR MAX TEMP:  49;

SALT LAKE CITY LGT SNOW  33  32  96 CALM      29.28R FOG
6HR MIN TEMP:  33; 6HR MAX TEMP:  36; 6HR PCP:  0.04;

$$

NMZ009-TXZ055-211300-
NEW MEXICO-WEST TEXAS

CITY           SKY/WX    TMP DP  RH WIND       PRES   REMARKS
ALBUQUERQUE    CLOUDY    38  36  92 S16       29.45S WCI  29
6HR MIN TEMP:  36; 6HR MAX TEMP:  38; 6HR PCP:  0.04;

EL PASO        CLOUDY    49  34  56 S15G28    29.53F
6HR MIN TEMP:  47; 6HR MAX TEMP:  49; 6HR PCP:  0.03;

$$


........................KEY........................
SKY/WX - SKY CONDITION/WEATHER
TMP    - TEMPERATURE IN FAHRENHEIT
DP     - DEW POINT IN FAHRENHEIT
RH     - RELATIVE HUMIDITY IN PERCENT
WIND   - DIRECTION AND SPEED IN MILES PER HOUR (MPH)
VRB    - VARIABLE WIND DIRECTION
PRES   - MEAN SEA LEVEL PRESSURE IN INCHES OF MERCURY
         F - FALLING PRESSURE   R - RISING PRESSURE
         S - STEADY PRESSURE
VSB    - VISIBILITY IN MILES
HX     - HEAT INDEX IN FAHRENHEIT
WCI    - WIND CHILL INDEX IN FAHRENHEIT
TC     - TEMPERATURE IN CELSIUS WHICH IS ALSO KNOWN AS
         TEMPERATURE IN CENTIGRADE
AFB    - AIR FORCE BASE
         LUKE AFB IS LUKE AIR FORCE BASE
         DAVIS-MONTHAN IS DAVIS-MONTHAN AIR FORCE BASE
NAS    - NAVAL AIR STATION
         EL CENTRO NAS IS EL CENTRO NAVAL AIR STATION
N/A    - NOT AVAILABLE




USA.gov is the U.S. government's official web portal to all federal, state and local government web resources and services.